Time,TemperatureF,DewpointF,PressureIn,WindDirection,WindDirectionDegrees,WindSpeedMPH,WindSpeedGustMPH,Humidity,HourlyPrecipIn,Conditions,Clouds,dailyrainin,SoftwareType,DateUTC
2013-04-22 00:02:00,35.0,27.0,-100.00,SE,136,13.0,18.0,73,0.00,,,-99.99,,2013-04-22 06:02:00,
2013-04-22 00:12:00,34.0,27.0,-100.00,SSE,151,14.0,19.0,76,0.00,,,-99.99,,2013-04-22 06:12:00,
2013-04-22 00:21:00,37.0,26.0,-100.00,SW,216,6.0,13.0,64,0.00,,,-99.99,,2013-04-22 06:21:00,
2013-04-22 00:32:00,37.0,26.0,-100.00,SSW,203,7.0,14.0,64,0.00,,,-99.99,,2013-04-22 06:32:00,
2013-04-22 00:42:00,37.0,26.0,-100.00,SW,236,7.0,11.0,65,0.00,,,-99.99,,2013-04-22 06:42:00,
2013-04-22 00:51:00,35.0,27.0,-100.00,East,79,7.0,17.0,74,0.00,,,-99.99,,2013-04-22 06:51:00,
2013-04-22 01:01:00,36.0,27.0,-100.00,ESE,113,16.0,26.0,71,0.00,,,-99.99,,2013-04-22 07:01:00,
2013-04-22 01:11:00,36.0,27.0,-100.00,ESE,113,14.0,26.0,69,0.00,,,-99.99,,2013-04-22 07:11:00,
2013-04-22 01:21:00,37.0,25.0,-100.00,SSW,203,4.0,11.0,61,0.00,,,-99.99,,2013-04-22 07:21:00,
2013-04-22 01:32:00,37.0,25.0,-100.00,WNW,302,10.0,17.0,60,0.00,,,-99.99,,2013-04-22 07:32:00,
2013-04-22 01:42:00,36.0,26.0,-100.00,West,271,17.0,24.0,66,0.00,,,-99.99,,2013-04-22 07:42:00,
2013-04-22 01:52:00,36.0,26.0,-100.00,WSW,251,17.0,26.0,66,0.00,,,-99.99,,2013-04-22 07:52:00,
2013-04-22 02:02:00,36.0,27.0,-100.00,WSW,244,10.0,14.0,71,0.00,,,-99.99,,2013-04-22 08:02:00,
2013-04-22 02:11:00,35.0,28.0,-100.00,SSW,209,7.0,12.0,75,0.00,,,-99.99,,2013-04-22 08:11:00,
2013-04-22 02:22:00,36.0,29.0,-100.00,WSW,241,11.0,21.0,76,0.00,,,-99.99,,2013-04-22 08:22:00,
2013-04-22 02:32:00,33.0,31.0,-100.00,West,263,17.0,22.0,93,0.13,,,-99.99,,2013-04-22 08:32:00,
2013-04-22 02:42:00,32.0,31.0,-100.00,WSW,237,12.0,19.0,97,0.00,,,-99.99,,2013-04-22 08:42:00,
2013-04-22 02:52:00,32.0,31.0,-100.00,SSW,212,11.0,14.0,96,0.00,,,-99.99,,2013-04-22 08:52:00,
2013-04-22 03:01:00,32.0,31.0,-100.00,SSW,202,12.0,15.0,96,0.00,,,-99.99,,2013-04-22 09:01:00,
2013-04-22 03:11:00,32.0,31.0,-100.00,South,179,9.0,11.0,97,0.00,,,-99.99,,2013-04-22 09:11:00,
2013-04-22 03:21:00,31.0,31.0,-100.00,SSE,162,9.0,11.0,97,0.00,,,-99.99,,2013-04-22 09:21:00,
2013-04-22 03:33:00,31.0,30.0,-100.00,SSE,162,9.0,12.0,97,0.00,,,-99.99,,2013-04-22 09:33:00,
2013-04-22 03:42:00,32.0,31.0,-100.00,South,175,6.0,9.0,96,0.00,,,-99.99,,2013-04-22 09:42:00,
2013-04-22 03:52:00,34.0,29.0,-100.00,WNW,287,16.0,27.0,82,0.00,,,-99.99,,2013-04-22 09:52:00,
2013-04-22 04:03:00,34.0,28.0,-100.00,WNW,284,15.0,23.0,78,0.00,,,-99.99,,2013-04-22 10:03:00,
2013-04-22 04:12:00,35.0,27.0,-100.00,West,280,15.0,22.0,73,0.00,,,-99.99,,2013-04-22 10:12:00,
2013-04-22 04:22:00,35.0,26.0,-100.00,West,280,19.0,27.0,70,0.00,,,-99.99,,2013-04-22 10:22:00,
2013-04-22 04:32:00,35.0,26.0,-100.00,WNW,287,19.0,25.0,70,0.00,,,-99.99,,2013-04-22 10:32:00,
2013-04-22 04:42:00,35.0,26.0,-100.00,WNW,282,18.0,24.0,69,0.00,,,-99.99,,2013-04-22 10:42:00,
2013-04-22 04:52:00,35.0,24.0,-100.00,West,281,16.0,21.0,64,0.00,,,-99.99,,2013-04-22 10:52:00,
2013-04-22 05:02:00,35.0,24.0,-100.00,WNW,282,17.0,22.0,64,0.00,,,-99.99,,2013-04-22 11:02:00,
2013-04-22 05:12:00,35.0,23.0,-100.00,WNW,285,17.0,22.0,62,0.00,,,-99.99,,2013-04-22 11:12:00,
2013-04-22 05:22:00,34.0,23.0,-100.00,WNW,284,14.0,20.0,64,0.00,,,-99.99,,2013-04-22 11:22:00,
2013-04-22 05:32:00,34.0,23.0,-100.00,West,280,12.0,16.0,65,0.00,,,-99.99,,2013-04-22 11:32:00,
2013-04-22 05:42:00,33.0,23.0,-100.00,West,275,11.0,15.0,66,0.00,,,-99.99,,2013-04-22 11:42:00,
2013-04-22 05:52:00,34.0,23.0,-100.00,West,280,13.0,20.0,65,0.00,,,-99.99,,2013-04-22 11:52:00,
2013-04-22 06:02:00,33.0,24.0,-100.00,WNW,288,12.0,17.0,69,0.00,,,-99.99,,2013-04-22 12:02:00,
2013-04-22 06:12:00,33.0,24.0,-100.00,WNW,298,10.0,12.0,68,0.00,,,-99.99,,2013-04-22 12:12:00,
2013-04-22 06:21:00,30.0,23.0,-100.00,NW,308,8.0,12.0,73,0.00,,,-99.99,,2013-04-22 12:21:00,
2013-04-22 06:32:00,31.0,28.0,-100.00,NNW,332,12.0,21.0,91,0.00,,,-99.99,,2013-04-22 12:32:00,
2013-04-22 06:42:00,31.0,29.0,-100.00,NNW,336,20.0,24.0,94,0.03,,,-99.99,,2013-04-22 12:42:00,
2013-04-22 06:52:00,30.0,29.0,-100.00,NW,325,21.0,27.0,97,0.23,,,-99.99,,2013-04-22 12:52:00,
2013-04-22 07:01:00,29.0,28.0,-100.00,NNW,330,12.0,19.0,97,0.07,,,-99.99,,2013-04-22 13:01:00,
2013-04-22 07:11:00,27.0,26.0,-100.00,North,359,12.0,17.0,97,0.13,,,-99.99,,2013-04-22 13:11:00,
2013-04-22 07:22:00,25.0,24.0,-100.00,North,11,17.0,20.0,97,0.03,,,-99.99,,2013-04-22 13:22:00,
2013-04-22 07:32:00,24.0,23.0,-100.00,North,6,17.0,20.0,97,0.01,,,-99.99,,2013-04-22 13:32:00,
2013-04-22 07:41:00,24.0,23.0,-100.00,North,0,17.0,20.0,97,0.01,,,-99.99,,2013-04-22 13:41:00,
2013-04-22 07:52:00,24.0,23.0,-100.00,North,354,12.0,15.0,97,0.01,,,-99.99,,2013-04-22 13:52:00,
2013-04-22 08:02:00,24.0,23.0,-100.00,North,0,13.0,17.0,97,0.00,,,-99.99,,2013-04-22 14:02:00,
2013-04-22 08:11:00,24.0,23.0,-100.00,North,359,12.0,15.0,97,0.00,,,-99.99,,2013-04-22 14:11:00,
2013-04-22 08:21:00,24.0,23.0,-100.00,North,360,13.0,17.0,96,0.00,,,-99.99,,2013-04-22 14:21:00,
2013-04-22 08:33:00,24.0,23.0,-100.00,North,356,14.0,17.0,96,0.04,,,-99.99,,2013-04-22 14:33:00,
2013-04-22 08:42:00,23.0,22.0,-100.00,North,356,16.0,21.0,95,0.01,,,-99.99,,2013-04-22 14:42:00,
2013-04-22 08:51:00,23.0,22.0,-100.00,North,356,17.0,21.0,95,0.06,,,-99.99,,2013-04-22 14:51:00,
2013-04-22 09:01:00,23.0,22.0,-100.00,NNW,346,16.0,19.0,94,0.03,,,-99.99,,2013-04-22 15:01:00,
2013-04-22 09:11:00,22.0,21.0,-100.00,NNW,332,15.0,18.0,93,0.04,,,-99.99,,2013-04-22 15:11:00,
2013-04-22 09:22:00,23.0,21.0,-100.00,NNW,337,11.0,14.0,94,0.06,,,-99.99,,2013-04-22 15:22:00,
2013-04-22 09:33:00,23.0,21.0,-100.00,NNW,343,11.0,14.0,92,0.00,,,-99.99,,2013-04-22 15:33:00,
2013-04-22 09:42:00,23.0,21.0,-100.00,NNW,342,12.0,15.0,92,0.00,,,-99.99,,2013-04-22 15:42:00,
2013-04-22 09:53:00,23.0,21.0,-100.00,NNW,339,12.0,14.0,92,0.00,,,-99.99,,2013-04-22 15:53:00,
2013-04-22 10:02:00,23.0,21.0,-100.00,NNW,336,11.0,14.0,91,0.01,,,-99.99,,2013-04-22 16:02:00,
2013-04-22 10:12:00,23.0,21.0,-100.00,NNW,343,11.0,13.0,91,0.00,,,-99.99,,2013-04-22 16:12:00,
2013-04-22 10:23:00,22.0,20.0,-100.00,North,11,10.0,14.0,92,0.01,,,-99.99,,2013-04-22 16:23:00,
2013-04-22 10:33:00,21.0,19.0,-100.00,NE,52,14.0,17.0,93,0.01,,,-99.99,,2013-04-22 16:33:00,
2013-04-22 10:42:00,21.0,19.0,-100.00,NE,52,14.0,17.0,93,0.01,,,-99.99,,2013-04-22 16:42:00,
2013-04-22 10:52:00,20.0,18.0,-100.00,NE,51,16.0,19.0,92,0.01,,,-99.99,,2013-04-22 16:52:00,
2013-04-22 11:02:00,20.0,18.0,-100.00,NE,51,15.0,17.0,92,0.06,,,-99.99,,2013-04-22 17:02:00,
2013-04-22 11:12:00,20.0,19.0,-100.00,NE,49,15.0,17.0,93,0.03,,,-99.99,,2013-04-22 17:12:00,
2013-04-22 11:22:00,20.0,18.0,-100.00,NE,54,16.0,19.0,91,0.04,,,-99.99,,2013-04-22 17:22:00,
2013-04-22 11:32:00,20.0,17.0,-100.00,NE,51,17.0,20.0,91,0.01,,,-99.99,,2013-04-22 17:32:00,
2013-04-22 11:42:00,20.0,17.0,-100.00,NE,40,16.0,19.0,91,0.03,,,-99.99,,2013-04-22 17:42:00,
2013-04-22 11:52:00,20.0,17.0,-100.00,NE,42,16.0,18.0,90,0.01,,,-99.99,,2013-04-22 17:52:00,
2013-04-22 12:01:00,20.0,18.0,-100.00,NE,38,17.0,19.0,92,0.00,,,-99.99,,2013-04-22 18:01:00,
2013-04-22 12:12:00,20.0,17.0,-100.00,NE,35,16.0,21.0,89,0.01,,,-99.99,,2013-04-22 18:12:00,
2013-04-22 12:21:00,20.0,17.0,-100.00,NE,37,16.0,19.0,91,0.01,,,-99.99,,2013-04-22 18:21:00,
2013-04-22 12:32:00,20.0,18.0,-100.00,NE,37,16.0,18.0,92,0.01,,,-99.99,,2013-04-22 18:32:00,
2013-04-22 12:42:00,19.0,17.0,-100.00,NE,35,17.0,19.0,91,0.00,,,-99.99,,2013-04-22 18:42:00,
2013-04-22 12:52:00,19.0,18.0,-100.00,NE,45,15.0,18.0,92,0.06,,,-99.99,,2013-04-22 18:52:00,
2013-04-22 13:01:00,19.0,17.0,-100.00,NE,48,17.0,21.0,91,0.01,,,-99.99,,2013-04-22 19:01:00,
2013-04-22 13:12:00,20.0,17.0,-100.00,NE,42,17.0,21.0,91,0.00,,,-99.99,,2013-04-22 19:12:00,
2013-04-22 13:21:00,20.0,18.0,-100.00,NE,40,15.0,17.0,92,0.04,,,-99.99,,2013-04-22 19:21:00,
2013-04-22 13:32:00,20.0,18.0,-100.00,NE,42,15.0,17.0,91,0.00,,,-99.99,,2013-04-22 19:32:00,
2013-04-22 13:42:00,20.0,17.0,-100.00,NE,41,16.0,17.0,90,0.00,,,-99.99,,2013-04-22 19:42:00,
2013-04-22 13:52:00,20.0,18.0,-100.00,NE,37,16.0,18.0,91,0.04,,,-99.99,,2013-04-22 19:52:00,
2013-04-22 14:02:00,20.0,18.0,-100.00,NE,40,17.0,20.0,92,0.04,,,-99.99,,2013-04-22 20:02:00,
2013-04-22 14:11:00,19.0,17.0,-100.00,NE,41,18.0,22.0,91,0.13,,,-99.99,,2013-04-22 20:11:00,
2013-04-22 14:22:00,20.0,18.0,-100.00,NE,45,17.0,20.0,93,0.08,,,-99.99,,2013-04-22 20:22:00,
2013-04-22 14:32:00,19.0,17.0,-100.00,NE,52,18.0,21.0,90,0.01,,,-99.99,,2013-04-22 20:32:00,
2013-04-22 14:42:00,19.0,17.0,-100.00,NE,52,18.0,21.0,91,0.01,,,-99.99,,2013-04-22 20:42:00,
2013-04-22 14:51:00,19.0,17.0,-100.00,NE,56,18.0,23.0,90,0.00,,,-99.99,,2013-04-22 20:51:00,
2013-04-22 15:02:00,20.0,17.0,-100.00,NE,49,17.0,21.0,88,0.00,,,-99.99,,2013-04-22 21:02:00,
2013-04-22 15:11:00,19.0,16.0,-100.00,NE,45,18.0,21.0,86,0.00,,,-99.99,,2013-04-22 21:11:00,
2013-04-22 15:21:00,20.0,16.0,-100.00,NE,42,17.0,21.0,87,0.01,,,-99.99,,2013-04-22 21:21:00,
2013-04-22 15:32:00,20.0,16.0,-100.00,NE,40,16.0,19.0,86,0.01,,,-99.99,,2013-04-22 21:32:00,
2013-04-22 15:42:00,20.0,16.0,-100.00,NE,41,17.0,19.0,84,0.01,,,-99.99,,2013-04-22 21:42:00,
2013-04-22 15:53:00,20.0,16.0,-100.00,NE,48,16.0,18.0,86,0.07,,,-99.99,,2013-04-22 21:53:00,
2013-04-22 16:02:00,20.0,17.0,-100.00,NE,47,16.0,18.0,88,0.04,,,-99.99,,2013-04-22 22:02:00,
2013-04-22 16:12:00,19.0,17.0,-100.00,NE,45,16.0,19.0,88,0.06,,,-99.99,,2013-04-22 22:12:00,
2013-04-22 16:22:00,19.0,16.0,-100.00,NE,49,16.0,19.0,89,0.03,,,-99.99,,2013-04-22 22:22:00,
2013-04-22 16:33:00,19.0,16.0,-100.00,NE,48,17.0,20.0,89,0.01,,,-99.99,,2013-04-22 22:33:00,
2013-04-22 16:42:00,18.0,15.0,-100.00,NE,48,16.0,19.0,88,0.03,,,-99.99,,2013-04-22 22:42:00,
2013-04-22 16:52:00,19.0,16.0,-100.00,NE,51,14.0,17.0,90,0.07,,,-99.99,,2013-04-22 22:52:00,
2013-04-22 17:02:00,18.0,15.0,-100.00,NE,51,14.0,16.0,88,0.06,,,-99.99,,2013-04-22 23:02:00,
2013-04-22 17:11:00,19.0,17.0,-100.00,East,85,10.0,14.0,93,0.08,,,-99.99,,2013-04-22 23:11:00,
2013-04-22 17:21:00,19.0,17.0,-100.00,SE,127,9.0,12.0,94,0.06,,,-99.99,,2013-04-22 23:21:00,
2013-04-22 17:32:00,18.0,16.0,-100.00,ESE,110,9.0,15.0,93,0.08,,,-99.99,,2013-04-22 23:32:00,
2013-04-22 17:42:00,18.0,17.0,-100.00,ESE,110,7.0,12.0,94,0.03,,,-99.99,,2013-04-22 23:42:00,
2013-04-22 17:52:00,18.0,17.0,-100.00,ESE,116,9.0,13.0,94,0.06,,,-99.99,,2013-04-22 23:52:00,
2013-04-22 18:02:00,18.0,16.0,-100.00,ESE,114,10.0,15.0,93,0.07,,,-99.99,,2013-04-23 00:02:00,
2013-04-22 18:12:00,17.0,16.0,-100.00,ESE,103,9.0,15.0,93,0.04,,,-99.99,,2013-04-23 00:12:00,
2013-04-22 18:21:00,18.0,16.0,-100.00,East,100,6.0,11.0,93,0.00,,,-99.99,,2013-04-23 00:21:00,
2013-04-22 18:31:00,17.0,16.0,-100.00,East,93,7.0,11.0,94,0.01,,,-99.99,,2013-04-23 00:31:00,
2013-04-22 18:42:00,17.0,16.0,-100.00,East,100,4.0,7.0,94,0.00,,,-99.99,,2013-04-23 00:42:00,
2013-04-22 18:51:00,18.0,17.0,-100.00,ESE,119,6.0,9.0,94,0.00,,,-99.99,,2013-04-23 00:51:00,
2013-04-22 19:01:00,18.0,17.0,-100.00,SE,127,7.0,11.0,94,0.01,,,-99.99,,2013-04-23 01:01:00,
2013-04-22 19:11:00,18.0,16.0,-100.00,SE,126,8.0,11.0,94,0.03,,,-99.99,,2013-04-23 01:11:00,
2013-04-22 19:21:00,17.0,16.0,-100.00,SE,124,7.0,11.0,94,0.00,,,-99.99,,2013-04-23 01:21:00,
2013-04-22 19:32:00,17.0,16.0,-100.00,ESE,123,7.0,11.0,94,0.00,,,-99.99,,2013-04-23 01:32:00,
2013-04-22 19:42:00,17.0,16.0,-100.00,SE,136,6.0,8.0,94,0.00,,,-99.99,,2013-04-23 01:42:00,
2013-04-22 19:52:00,17.0,15.0,-100.00,SE,134,6.0,9.0,94,0.00,,,-99.99,,2013-04-23 01:52:00,
2013-04-22 20:01:00,17.0,15.0,-100.00,SE,124,6.0,7.0,94,0.07,,,-99.99,,2013-04-23 02:01:00,
2013-04-22 20:12:00,17.0,15.0,-100.00,ESE,119,6.0,11.0,95,0.03,,,-99.99,,2013-04-23 02:12:00,
2013-04-22 20:21:00,16.0,15.0,-100.00,ESE,120,8.0,12.0,94,0.00,,,-99.99,,2013-04-23 02:21:00,
2013-04-22 20:32:00,16.0,15.0,-100.00,SE,136,9.0,12.0,94,0.00,,,-99.99,,2013-04-23 02:32:00,
2013-04-22 20:42:00,16.0,15.0,-100.00,SE,130,7.0,10.0,94,0.01,,,-99.99,,2013-04-23 02:42:00,
2013-04-22 20:52:00,16.0,15.0,-100.00,SE,130,7.0,7.0,94,0.01,,,-99.99,,2013-04-23 02:52:00,
2013-04-22 21:01:00,16.0,15.0,-100.00,SE,133,6.0,8.0,94,0.00,,,-99.99,,2013-04-23 03:01:00,
2013-04-22 21:11:00,16.0,15.0,-100.00,SE,133,6.0,9.0,95,0.01,,,-99.99,,2013-04-23 03:11:00,
2013-04-22 21:21:00,16.0,15.0,-100.00,ESE,123,7.0,10.0,94,0.00,,,-99.99,,2013-04-23 03:21:00,
2013-04-22 21:33:00,16.0,15.0,-100.00,SE,124,8.0,11.0,94,0.00,,,-99.99,,2013-04-23 03:33:00,
2013-04-22 21:43:00,16.0,14.0,-100.00,ESE,121,9.0,11.0,94,0.00,,,-99.99,,2013-04-23 03:43:00,
2013-04-22 21:52:00,16.0,14.0,-100.00,SE,124,7.0,8.0,94,0.00,,,-99.99,,2013-04-23 03:52:00,
2013-04-22 22:03:00,15.0,14.0,-100.00,SE,127,6.0,7.0,94,0.00,,,-99.99,,2013-04-23 04:03:00,
2013-04-22 22:12:00,15.0,14.0,-100.00,SE,127,5.0,6.0,94,0.00,,,-99.99,,2013-04-23 04:12:00,
2013-04-22 22:23:00,15.0,14.0,-100.00,ESE,121,4.0,6.0,94,0.00,,,-99.99,,2013-04-23 04:23:00,
2013-04-22 22:33:00,15.0,13.0,-100.00,East,95,4.0,7.0,93,0.00,,,-99.99,,2013-04-23 04:33:00,
2013-04-22 22:43:00,15.0,13.0,-100.00,ENE,68,6.0,13.0,93,0.01,,,-99.99,,2013-04-23 04:43:00,
2013-04-22 22:52:00,14.0,13.0,-100.00,ENE,64,11.0,14.0,93,0.01,,,-99.99,,2013-04-23 04:52:00,
2013-04-22 23:02:00,14.0,12.0,-100.00,ENE,62,12.0,16.0,93,0.01,,,-99.99,,2013-04-23 05:02:00,
2013-04-22 23:12:00,14.0,12.0,-100.00,ENE,59,11.0,15.0,93,0.01,,,-99.99,,2013-04-23 05:12:00,
2013-04-22 23:22:00,14.0,12.0,-100.00,ENE,62,12.0,15.0,93,0.13,,,-99.99,,2013-04-23 05:22:00,
2013-04-22 23:32:00,13.0,12.0,-100.00,ENE,64,11.0,15.0,93,0.10,,,-99.99,,2013-04-23 05:32:00,
2013-04-22 23:42:00,13.0,12.0,-100.00,ENE,68,10.0,14.0,93,0.10,,,-99.99,,2013-04-23 05:42:00,
2013-04-22 23:52:00,13.0,12.0,-100.00,ENE,68,9.0,12.0,93,0.13,,,-99.99,,2013-04-23 05:52:00,